Sunlight Mountain, CO

11:45 AM MDT on June 25, 2017 (GMT -0600)
Sunlight Mountain

Weather History for K5SM - June, 2013

Change the Weather History Date:

Monday, June 24, 2013

  Actual Average (KRIL) Record (KRIL)
Temperature  
Mean Temperature 58 °F -  
Max Temperature 69 °F 87 °F 99 °F (1990)
Min Temperature 46 °F 47 °F 35 °F (1993)
Degree Days  
Heating Degree Days 8    
Growing Degree Days 8 (Base 50)    
Moisture  
Dew Point 21 °F    
Average Humidity 26    
Maximum Humidity 35    
Minimum Humidity 17    
Precipitation  
Precipitation 0.00 in - - ()
Sea Level Pressure  
Sea Level Pressure 30.28 in    
Wind  
Wind Speed 1 mph (SSW)    
Max Wind Speed 5 mph    
Max Gust Speed -    
Visibility 8 miles    
Events      
Averages and records for this station are not official NWS values.
T = Trace of Precipitation, MM = Missing Value Source: NWS Daily Summary

Daily Weather History Graph

Daily Weather History Graph

Search for Another Location

Airport or City:

Trip Planner

Search our weather history database for the weather conditions in past years. The results will help you decide how hot, cold, wet, or windy it might be!

Date:

Astronomy

Jun. 24, 2013 Rise Set
Actual Time 5:43 AM MDT 8:40 PM MDT
Civil Twilight 5:11 AM MDT 9:12 PM MDT
Nautical Twilight 4:30 AM MDT 9:53 PM MDT
Astronomical Twilight 3:42 AM MDT 10:41 PM MDT
Moon 9:45 PM MDT (6/24) 7:14 AM MDT (6/24)
Length of Visible Light 16h 01m
Length of Day
14h 56m
Full, 97% of the Moon is Illuminated
Jun 24
Full
Jun 29
Last Quarter
Jul 8
New
Jul 15
First Quarter
Jul 22
Full

Hourly Weather History & Observations

Time (MDT) Temp. Windchill Dew Point Humidity Pressure Visibility Wind Dir Wind Speed Gust Speed Precip Events Conditions
12:03 AM 50.0 °F - 17.6 °F 28% 30.29 in 7.0 mi Calm Calm - N/A   Clear
12:24 AM 51.8 °F - 14.0 °F 22% 30.28 in 7.0 mi Calm Calm - N/A   Clear
12:44 AM 51.8 °F - 15.8 °F 24% 30.27 in 7.0 mi Calm Calm - N/A   Clear
1:04 AM 51.8 °F - 14.0 °F 22% 30.26 in 7.0 mi Calm Calm - N/A   Clear
1:24 AM 51.8 °F - 14.0 °F 22% 30.26 in 7.0 mi Calm Calm - N/A   Clear
1:44 AM 53.6 °F - 12.2 °F 19% 30.26 in 7.0 mi Calm Calm - N/A   Clear
2:03 AM 51.8 °F - 14.0 °F 22% 30.26 in 7.0 mi Calm Calm - N/A   Clear
2:24 AM 50.0 °F - 14.0 °F 24% 30.25 in 7.0 mi Calm Calm - N/A   Clear
2:44 AM 51.8 °F - 14.0 °F 22% 30.25 in 7.0 mi Calm Calm - N/A   Clear
3:04 AM 51.8 °F - 14.0 °F 22% 30.25 in 7.0 mi Calm Calm - N/A   Clear
3:24 AM 51.8 °F - 15.8 °F 24% 30.24 in 7.0 mi Calm Calm - N/A   Clear
3:44 AM 50.0 °F - 17.6 °F 28% 30.24 in 7.0 mi Calm Calm - N/A   Clear
4:04 AM 48.2 °F - 17.6 °F 30% 30.23 in 7.0 mi Calm Calm - N/A   Clear
4:23 AM 48.2 °F - 15.8 °F 27% 30.24 in 7.0 mi Calm Calm - N/A   Clear
4:44 AM 48.2 °F - 17.6 °F 30% 30.24 in 7.0 mi SSW 3.5 mph - N/A   Clear
5:04 AM 48.2 °F - 14.0 °F 25% 30.24 in 7.0 mi SSW 3.5 mph - N/A   Clear
5:23 AM 46.4 °F 45.2 °F 14.0 °F 27% 30.24 in 7.0 mi SSW 3.5 mph - N/A   Clear
5:43 AM 46.4 °F 45.2 °F 14.0 °F 27% 30.24 in 7.0 mi SSW 3.5 mph - N/A   Clear
6:04 AM 46.4 °F - 15.8 °F 29% 30.25 in 5.0 mi Calm Calm - N/A   Haze
6:23 AM 46.4 °F - 15.8 °F 29% 30.26 in 5.0 mi Calm Calm - N/A   Haze
6:43 AM 48.2 °F - 17.6 °F 30% 30.26 in 5.0 mi Calm Calm - N/A   Haze
7:04 AM 48.2 °F - 17.6 °F 30% 30.27 in 5.0 mi SSW 3.5 mph - N/A   Haze
7:24 AM 48.2 °F - 19.4 °F 32% 30.27 in 5.0 mi SSW 3.5 mph - N/A   Haze
7:44 AM 48.2 °F - 19.4 °F 32% 30.27 in 7.0 mi Calm Calm - N/A   Clear
8:04 AM 50.0 °F - 21.2 °F 32% 30.28 in 7.0 mi Calm Calm - N/A   Clear
8:24 AM 50.0 °F - 21.2 °F 32% 30.28 in 7.0 mi South 3.5 mph - N/A   Clear
8:44 AM 50.0 °F - 23.0 °F 35% 30.28 in 7.0 mi Calm Calm - N/A   Clear
9:03 AM 50.0 °F - 23.0 °F 35% 30.28 in 7.0 mi Calm Calm - N/A   Clear
9:24 AM 50.0 °F - 21.2 °F 32% 30.28 in 7.0 mi Calm Calm - N/A   Clear
9:44 AM 50.0 °F - 23.0 °F 35% 30.29 in 7.0 mi Calm Calm - N/A   Clear
10:04 AM 53.6 °F - 26.6 °F 35% 30.30 in 7.0 mi Calm Calm - N/A   Clear
10:24 AM 55.4 °F - 26.6 °F 33% 30.30 in 7.0 mi Calm Calm - N/A   Clear
10:44 AM 59.0 °F - 26.6 °F 29% 30.30 in 7.0 mi Calm Calm - N/A   Clear
11:04 AM 60.8 °F - 26.6 °F 27% 30.30 in 7.0 mi Calm Calm - N/A   Clear
11:24 AM 62.6 °F - 28.4 °F 27% 30.30 in 7.0 mi Calm Calm - N/A   Clear
11:43 AM 62.6 °F - 26.6 °F 26% 30.30 in 7.0 mi Calm Calm - N/A   Clear
12:04 PM 62.6 °F - 24.8 °F 24% 30.31 in 10.0 mi Calm Calm - N/A   Clear
12:24 PM 64.4 °F - 23.0 °F 21% 30.30 in 10.0 mi Calm Calm - N/A   Clear
12:44 PM 66.2 °F - 23.0 °F 19% 30.30 in 10.0 mi SSW 3.5 mph - N/A   Clear
1:04 PM 68.0 °F - 26.6 °F 21% 30.30 in 10.0 mi SW 3.5 mph - N/A   Clear
1:24 PM 69.8 °F - 26.6 °F 20% 30.29 in 10.0 mi Calm Calm - N/A   Clear
1:44 PM 68.0 °F - 24.8 °F 20% 30.28 in 7.0 mi SSW 3.5 mph - N/A   Clear
2:04 PM 69.8 °F - 26.6 °F 20% 30.28 in 10.0 mi Calm Calm - N/A   Clear
2:24 PM 68.0 °F - 23.0 °F 18% 30.28 in 10.0 mi Calm Calm - N/A   Clear
2:43 PM 69.8 °F - 23.0 °F 17% 30.28 in 10.0 mi Calm Calm - N/A   Clear
3:04 PM 68.0 °F - 24.8 °F 20% 30.28 in 10.0 mi South 3.5 mph - N/A   Clear
3:24 PM 69.8 °F - 26.6 °F 20% 30.29 in 7.0 mi Calm Calm - N/A   Clear
3:44 PM 64.4 °F - 21.2 °F 19% 30.29 in 10.0 mi Calm Calm - N/A   Clear
4:04 PM 64.4 °F - 24.8 °F 22% 30.29 in 10.0 mi Calm Calm - N/A   Clear
4:24 PM 64.4 °F - 24.8 °F 22% 30.29 in 10.0 mi Calm Calm - N/A   Clear
4:44 PM 68.0 °F - 26.6 °F 21% 30.28 in 10.0 mi Calm Calm - N/A   Clear
5:03 PM 64.4 °F - 23.0 °F 21% 30.29 in 10.0 mi Calm Calm - N/A   Clear
5:24 PM 62.6 °F - 24.8 °F 24% 30.28 in 10.0 mi Calm Calm - N/A   Clear
5:44 PM 64.4 °F - 26.6 °F 24% 30.28 in 10.0 mi Calm Calm - N/A   Clear
6:04 PM 62.6 °F - 24.8 °F 24% 30.28 in 10.0 mi Calm Calm - N/A   Clear
6:24 PM 59.0 °F - 23.0 °F 25% 30.27 in 7.0 mi Calm Calm - N/A   Clear
6:44 PM 59.0 °F - 23.0 °F 25% 30.28 in 7.0 mi Calm Calm - N/A   Clear
7:04 PM 57.2 °F - 23.0 °F 27% 30.28 in 7.0 mi Calm Calm - N/A   Mostly Cloudy
7:23 PM 55.4 °F - 21.2 °F 26% 30.29 in 7.0 mi Calm Calm - N/A   Overcast
7:44 PM 55.4 °F - 21.2 °F 26% 30.28 in 7.0 mi Calm Calm - N/A   Overcast
8:04 PM 55.4 °F - 21.2 °F 26% 30.29 in 7.0 mi Calm Calm - N/A   Overcast
8:24 PM 55.4 °F - 21.2 °F 26% 30.29 in 7.0 mi South 3.5 mph - N/A   Overcast
8:44 PM 55.4 °F - 23.0 °F 29% 30.29 in 7.0 mi Calm Calm - N/A   Mostly Cloudy
9:04 PM 53.6 °F - 23.0 °F 30% 30.30 in 10.0 mi Calm Calm - N/A   Overcast
9:23 PM 53.6 °F - 23.0 °F 30% 30.30 in 7.0 mi South 3.5 mph - N/A   Overcast
9:44 PM 53.6 °F - 23.0 °F 30% 30.30 in 7.0 mi SSW 3.5 mph - N/A   Overcast
10:01 PM 53.6 °F - 23.0 °F 30% 30.31 in 10.0 mi Calm Calm - N/A   Overcast
10:24 PM 53.6 °F - 23.0 °F 30% 30.31 in 10.0 mi Calm Calm - N/A   Overcast
10:44 PM 53.6 °F - 23.0 °F 30% 30.30 in 10.0 mi SSE 3.5 mph - N/A   Overcast
11:04 PM 53.6 °F - 23.0 °F 30% 30.30 in 7.0 mi SSW 3.5 mph - N/A   Mostly Cloudy
11:24 PM 51.8 °F - 24.8 °F 35% 30.30 in 7.0 mi Calm Calm - N/A   Mostly Cloudy
11:44 PM 51.8 °F - 24.8 °F 35% 30.30 in 10.0 mi SSW 4.6 mph - N/A   Overcast